Location: Lafig�re
(44.4503°N, 4.0357°E)
Time: 14:55:44
(UTC+00:00)

Vanguard 2 Rocket - Pass Details

Date: 20 June 2021
Orbit: 555 x 3325 km, 32.9° (Epoch: 28 July)

Event Time Altitude Azimuth Distance (km) Brightness Sun altitude
Rises 23:19:55 0° 273° (W) 6,879 11.5 -21.9°
Reaches altitude 10° 23:25:30 10° 267° (W) 5,509 10.9 -22.0°
Maximum altitude 23:38:25 35° 210° (SSW) 2,828 8.9 -22.1°
Enters shadow 23:40:49 32° 187° (S) 2,729 8.7 -22.1°
